Weather Roundup
Issued by NWS Springfield, MO

Home | Current Version | Previous Version | Text Only | Print | Product List | Glossary On
Versions: 1 2 3 4 5 6 7 8 9 10 11 12 13 14 15 16 17 18 19 20 21 22 23 24 25 26 27 28 29 30 31 32 33 34 35 36 37 38 39 40 41 42 43 44 45 46 47 48 49 50
000
NZUS99 KSGF 030007
HRRSGF

HOURLY WEATHER
NATIONAL WEATHER SERVICE SPRINGFIELD MO
700 PM CDT MON MAY 02 2016

......SGF CWA......

CITY           SKY/WX    TMP DP  RH WIND       PRES   REMARKS
SPRINGFIELD    CLOUDY    53  45  74 NW6       30.05S
6HR MIN TEMP:  51; 6HR MAX TEMP:  55;

JOPLIN         LGT RAIN  52  48  86 CALM      30.08S
6HR MIN TEMP:  51; 6HR MAX TEMP:  57; 6HR PCP: TRACE;

WEST PLAINS    CLOUDY    57  45  64 N10       30.02S
6HR MIN TEMP:  57; 6HR MAX TEMP:  62;

ROLLA          CLOUDY    51  46  83 NW10      30.02S
6HR MIN TEMP:  51; 6HR MAX TEMP:  54;

OSAGE BEACH    CLOUDY    54  39  58 W5        30.06S
BRANSON        CLOUDY    52  46  82 NW6       30.05S

......SURROUNDING SGF CWA......

CITY           SKY/WX    TMP DP  RH WIND       PRES   REMARKS
CHANUTE        CLOUDY    57  45  64 N5        30.08S
PARSONS        CLOUDY    60  45  57 VRB5      30.08F
COFFEYVILLE    CLOUDY    60  46  59 N6        30.08F
EMPORIA        PTSUNNY   59  41  51 NE8       30.07S
GROVE OK       CLOUDY    57  46  67 NW7       30.08F
ROGERS AR      CLOUDY    52  46  80 NW7       30.07F
SILOAM SPRINGS PTSUNNY   55  41  58 NW6       30.08F
HARRISON AR    CLOUDY    53  49  86 W3        30.04S
NEAR YELLVILLE CLOUDY   N/A N/A N/A NW10      29.99S

......KANSAS AND MISSOURI......

CITY           SKY/WX    TMP DP  RH WIND       PRES   REMARKS
KANSAS CTY INT PTSUNNY   56  46  69 W5        30.06F
DOWNTOWN KC    CLOUDY    57  46  66 CALM      30.06F
COLUMBIA       CLOUDY    53  48  83 W7        30.05S
SEDALIA        CLOUDY    53  48  83 N3        30.07S
ST JOSEPH      MOSUNNY   60  44  55 W3        30.06S
ST LOUIS       CLOUDY    56  48  74 NW6       30.02S
SPIRIT OF STL  CLOUDY    55  49  80 NW7       30.01F
KIRKSVILLE     CLOUDY    53  46  77 CALM      30.06S
WICHITA        MOSUNNY   62  37  39 N6        30.07S
TOPEKA         SUNNY     59  45  59 SE3       30.08S
OLATHE         CLOUDY    53  45  74 NW3       30.08S

......TENNESSEE......

CITY           SKY/WX    TMP DP  RH WIND       PRES   REMARKS
MEMPHIS        MOCLDY    65  56  72 N8        29.95R
NASHVILLE      CLOUDY    61  57  87 NW8       29.94R

......ARKANSAS.......

CITY           SKY/WX    TMP DP  RH WIND       PRES   REMARKS
FAYETTEVILLE   CLOUDY    52  46  80 NW6       30.07R
FT SMITH       CLOUDY    59  45  59 NW12      30.06R
LITTLE ROCK    MOSUNNY   66  52  60 NW10      30.00R

......OKLAHOMA.......

CITY           SKY/WX    TMP DP  RH WIND       PRES   REMARKS
TULSA          PTSUNNY   61  45  55 N8        30.06S
PONCA CITY     PTSUNNY   59  44  57 NW3       30.08S
MCALESTER      PTSUNNY   59  46  62 N6        30.09F
OKLAHOMA CITY  PTSUNNY   60  42  51 N12       30.10R

......IOWA............

CITY           SKY/WX    TMP DP  RH WIND       PRES   REMARKS
DES MOINES     MOSUNNY   60  37  42 E6        30.04S
QUAD CITIES    CLOUDY    58  43  57 CALM      30.02S

......ILLINOIS........

CITY           SKY/WX    TMP DP  RH WIND       PRES   REMARKS
QUINCY         CLOUDY    52  47  83 N7        30.04S
CHICAGO        MOCLDY    55  31  39 NE9       30.01S




USA.gov is the U.S. government's official web portal to all federal, state and local government web resources and services.